Location: Kergonan
(48.2337°N, 4.5518°W)
Time: 05:28:07
(UTC+00:00)

BREEZE M DEB (TANK) - Pass Details

Date: 18 January 2020
Orbit: 321 x 13662 km, 49.6° (Epoch: 23 February)

Event Time Altitude Azimuth Distance (km) Brightness Sun altitude
Exits shadow 06:03:38 18° 191° (S) 1,014 4.1 -19.3°
Maximum altitude 06:05:05 31° 139° (SE) 841 4.2 -19.0°
Drops below altitude 10° 06:09:14 10° 76° (ENE) 2,472 7.1 -18.4°
Sets 06:13:39 0° 68° (ENE) 4,567 8.5 -17.6°
